Location: Ripley
(48.3812°N, 115.4473°W)
Time: 12:36:10
(UTC+00:00)

RS-15 - Pass Details

Date: 05 July 2022
Orbit: 1881 x 2163 km, 64.8° (Epoch: 13 August)

Event Time Altitude Azimuth Distance (km) Brightness Sun altitude
Rises 05:50:19 0° 318° (NW) 5,695 12.1 -14.2°
Reaches altitude 10° 05:53:48 10° 320° (NW) 4,693 11.3 -14.5°
Maximum altitude 06:06:17 79° 48° (NE) 2,178 8.3 -15.4°
Enters shadow 06:16:44 16° 135° (SE) 4,100 9.2 -16.1°
